Year,Month,Day,Hour,Minute,Value (Times are PST for windspeed in km/hr)
2010,10,21,00,00,6.20
2010,10,21,00,01,6.30
2010,10,21,00,02,6.80
2010,10,21,00,03,6.50
2010,10,21,00,04,5.60
2010,10,21,00,05,9.20
2010,10,21,00,06,7.30
2010,10,21,00,07,7.30
2010,10,21,00,08,7.20
2010,10,21,00,09,7.20
2010,10,21,00,10,5.10
2010,10,21,00,11,6.60
2010,10,21,00,12,6.50
2010,10,21,00,13,6.30
2010,10,21,00,14,6.20
2010,10,21,00,15,6.10
2010,10,21,00,16,5.30
2010,10,21,00,17,5.10
2010,10,21,00,18,5.80
2010,10,21,00,19,5.60
2010,10,21,00,20,5.60
2010,10,21,00,21,4.90
2010,10,21,00,22,5.20
2010,10,21,00,23,5.20
2010,10,21,00,24,4.80
2010,10,21,00,25,4.80
2010,10,21,00,26,4.90
2010,10,21,00,27,5.50
2010,10,21,00,28,6.30
2010,10,21,00,29,6.10
2010,10,21,00,30,6.50
2010,10,21,00,31,5.90
2010,10,21,00,32,6.40
2010,10,21,00,33,6.00
2010,10,21,00,34,5.90
2010,10,21,00,35,7.00
2010,10,21,00,36,6.40
2010,10,21,00,37,5.80
2010,10,21,00,38,5.50
2010,10,21,00,39,5.20
2010,10,21,00,40,5.80
2010,10,21,00,41,5.10
2010,10,21,00,42,4.30
2010,10,21,00,43,4.80
2010,10,21,00,44,4.30
2010,10,21,00,45,5.60
2010,10,21,00,46,5.50
2010,10,21,00,47,5.10
2010,10,21,00,48,6.00
2010,10,21,00,49,5.60
2010,10,21,00,50,4.60
2010,10,21,00,51,4.50
2010,10,21,00,52,4.30
2010,10,21,00,53,4.50
2010,10,21,00,54,4.20
2010,10,21,00,55,4.10
2010,10,21,00,56,4.40
2010,10,21,00,57,4.80
2010,10,21,00,58,5.10
2010,10,21,00,59,5.30
2010,10,21,01,00,5.60
2010,10,21,01,01,5.80
2010,10,21,01,02,6.30
2010,10,21,01,03,6.30
2010,10,21,01,04,6.70
2010,10,21,01,05,6.00
2010,10,21,01,06,5.20
2010,10,21,01,07,5.70
2010,10,21,01,08,5.30
2010,10,21,01,09,5.30
2010,10,21,01,10,4.90
2010,10,21,01,11,4.30
2010,10,21,01,12,4.70
2010,10,21,01,13,5.00
2010,10,21,01,14,4.70
2010,10,21,01,15,5.00
2010,10,21,01,16,4.60
2010,10,21,01,17,6.10
2010,10,21,01,18,5.10
2010,10,21,01,19,5.20
2010,10,21,01,20,5.10
2010,10,21,01,21,5.10
2010,10,21,01,22,5.40
2010,10,21,01,23,5.40
2010,10,21,01,24,5.50
2010,10,21,01,25,5.70
2010,10,21,01,26,6.10
2010,10,21,01,27,4.60
2010,10,21,01,28,2.90
2010,10,21,01,29,2.10
2010,10,21,01,30,3.10
2010,10,21,01,31,2.90
2010,10,21,01,32,2.60
2010,10,21,01,33,2.10
2010,10,21,01,34,1.70
2010,10,21,01,35,0.50
2010,10,21,01,36,0.60
2010,10,21,01,37,1.80
2010,10,21,01,38,1.90
2010,10,21,01,39,1.80
2010,10,21,01,40,2.90
2010,10,21,01,41,3.60
2010,10,21,01,42,4.40
2010,10,21,01,43,5.00
2010,10,21,01,44,5.50
2010,10,21,01,45,5.00
2010,10,21,01,46,5.10
2010,10,21,01,47,6.10
2010,10,21,01,48,5.30
2010,10,21,01,49,5.80
2010,10,21,01,50,5.70
2010,10,21,01,51,5.00
2010,10,21,01,52,5.60
2010,10,21,01,53,5.20
2010,10,21,01,54,5.20
2010,10,21,01,55,4.00
2010,10,21,01,56,4.60
2010,10,21,01,57,4.40
2010,10,21,01,58,5.10
2010,10,21,01,59,4.80
2010,10,21,02,00,5.00
2010,10,21,02,01,5.70
2010,10,21,02,02,5.70
2010,10,21,02,03,5.40
2010,10,21,02,04,5.30
2010,10,21,02,05,5.40
2010,10,21,02,06,5.60
2010,10,21,02,07,5.00
2010,10,21,02,08,5.10
2010,10,21,02,09,5.60
2010,10,21,02,10,5.60
2010,10,21,02,11,5.30
2010,10,21,02,12,5.30
2010,10,21,02,13,4.90
2010,10,21,02,14,5.70
2010,10,21,02,15,5.50
2010,10,21,02,16,5.00
2010,10,21,02,17,5.40
2010,10,21,02,18,6.20
2010,10,21,02,19,6.00
2010,10,21,02,20,6.30
2010,10,21,02,21,6.00
2010,10,21,02,22,6.40
2010,10,21,02,23,6.40
2010,10,21,02,24,7.00
2010,10,21,02,25,7.10
2010,10,21,02,26,6.20
2010,10,21,02,27,7.00
2010,10,21,02,28,6.10
2010,10,21,02,29,6.30
2010,10,21,02,30,5.60
2010,10,21,02,31,5.10
2010,10,21,02,32,5.30
2010,10,21,02,33,5.40
2010,10,21,02,34,5.60
2010,10,21,02,35,5.10
2010,10,21,02,36,5.30
2010,10,21,02,37,4.30
2010,10,21,02,38,5.30
2010,10,21,02,39,5.50
2010,10,21,02,40,5.00
2010,10,21,02,41,5.60
2010,10,21,02,42,6.10
2010,10,21,02,43,6.60
2010,10,21,02,44,6.70
2010,10,21,02,45,6.90
2010,10,21,02,46,6.10
2010,10,21,02,47,6.30
2010,10,21,02,48,5.70
2010,10,21,02,49,6.00
2010,10,21,02,50,5.40
2010,10,21,02,51,4.90
2010,10,21,02,52,5.10
2010,10,21,02,53,4.30
2010,10,21,02,54,5.20
2010,10,21,02,55,5.00
2010,10,21,02,56,5.70
2010,10,21,02,57,5.50
2010,10,21,02,58,5.10
2010,10,21,02,59,5.20
2010,10,21,03,00,5.40
2010,10,21,03,01,5.00
2010,10,21,03,02,5.00
2010,10,21,03,03,4.60
2010,10,21,03,04,4.50
2010,10,21,03,05,4.80
2010,10,21,03,06,4.40
2010,10,21,03,07,4.90
2010,10,21,03,08,4.40
2010,10,21,03,09,4.50
2010,10,21,03,10,4.70
2010,10,21,03,11,4.20
2010,10,21,03,12,4.30
2010,10,21,03,13,4.30
2010,10,21,03,14,4.30
2010,10,21,03,15,3.60
2010,10,21,03,16,3.10
2010,10,21,03,17,2.60
2010,10,21,03,18,2.00
2010,10,21,03,19,3.20
2010,10,21,03,20,3.00
2010,10,21,03,21,2.70
2010,10,21,03,22,2.50
2010,10,21,03,23,0.70
2010,10,21,03,24,0.60
2010,10,21,03,25,0.00
2010,10,21,03,26,0.00
2010,10,21,03,27,1.00
2010,10,21,03,28,1.50
2010,10,21,03,29,1.50
2010,10,21,03,30,1.70
2010,10,21,03,31,1.70
2010,10,21,03,32,2.60
2010,10,21,03,33,2.90
2010,10,21,03,34,2.90
2010,10,21,03,35,3.70
2010,10,21,03,36,4.10
2010,10,21,03,37,4.30
2010,10,21,03,38,4.30
2010,10,21,03,39,4.10
2010,10,21,03,40,4.70
2010,10,21,03,41,4.50
2010,10,21,03,42,4.70
2010,10,21,03,43,5.40
2010,10,21,03,44,4.50
2010,10,21,03,45,4.70
2010,10,21,03,46,4.50
2010,10,21,03,47,3.50
2010,10,21,03,48,3.80
2010,10,21,03,49,3.20
2010,10,21,03,50,4.40
2010,10,21,03,51,4.70
2010,10,21,03,52,4.70
2010,10,21,03,53,5.20
2010,10,21,03,54,5.40
2010,10,21,03,55,4.10
2010,10,21,03,56,5.30
2010,10,21,03,57,4.90
2010,10,21,03,58,5.10
2010,10,21,03,59,5.40
2010,10,21,04,00,5.30
2010,10,21,04,01,5.60
2010,10,21,04,02,6.30
2010,10,21,04,03,5.40
2010,10,21,04,04,5.50
2010,10,21,04,05,5.60
2010,10,21,04,06,4.50
2010,10,21,04,07,5.40
2010,10,21,04,08,4.20
2010,10,21,04,09,4.80
2010,10,21,04,10,4.50
2010,10,21,04,11,4.70
2010,10,21,04,12,4.80
2010,10,21,04,13,5.20
2010,10,21,04,14,4.90
2010,10,21,04,15,4.70
2010,10,21,04,16,4.80
2010,10,21,04,17,4.10
2010,10,21,04,18,4.30
2010,10,21,04,19,4.10
2010,10,21,04,20,4.80
2010,10,21,04,21,5.30
2010,10,21,04,22,6.10
2010,10,21,04,23,4.20
2010,10,21,04,24,6.00
2010,10,21,04,25,4.70
2010,10,21,04,26,5.60
2010,10,21,04,27,5.70
2010,10,21,04,28,6.10
2010,10,21,04,29,5.80
2010,10,21,04,30,6.30
2010,10,21,04,31,5.00
2010,10,21,04,32,6.80
2010,10,21,04,33,6.80
2010,10,21,04,34,4.90
2010,10,21,04,35,6.80
2010,10,21,04,36,6.30
2010,10,21,04,37,6.00
2010,10,21,04,38,5.80
2010,10,21,04,39,3.90
2010,10,21,04,40,5.10
2010,10,21,04,41,4.70
2010,10,21,04,42,5.10
2010,10,21,04,43,4.70
2010,10,21,04,44,4.20
2010,10,21,04,45,3.60
2010,10,21,04,46,4.30
2010,10,21,04,47,4.20
2010,10,21,04,48,5.10
2010,10,21,04,49,4.20
2010,10,21,04,50,4.20
2010,10,21,04,51,4.10
2010,10,21,04,52,4.30
2010,10,21,04,53,4.10
2010,10,21,04,54,4.30
2010,10,21,04,55,4.50
2010,10,21,04,56,4.90
2010,10,21,04,57,4.40
2010,10,21,04,58,4.10
2010,10,21,04,59,3.60
2010,10,21,05,00,3.70
2010,10,21,05,01,3.80
2010,10,21,05,02,4.20
2010,10,21,05,03,3.90
2010,10,21,05,04,3.60
2010,10,21,05,05,3.80
2010,10,21,05,06,2.90
2010,10,21,05,07,3.60
2010,10,21,05,08,3.90
2010,10,21,05,09,4.30
2010,10,21,05,10,3.90
2010,10,21,05,11,4.30
2010,10,21,05,12,4.20
2010,10,21,05,13,4.20
2010,10,21,05,14,4.20
2010,10,21,05,15,3.70
2010,10,21,05,16,4.30
2010,10,21,05,17,5.90
2010,10,21,05,18,5.90
2010,10,21,05,19,4.90
2010,10,21,05,20,5.90
2010,10,21,05,21,4.70
2010,10,21,05,22,5.00
2010,10,21,05,23,4.00
2010,10,21,05,24,4.80
2010,10,21,05,25,4.80
2010,10,21,05,26,4.20
2010,10,21,05,27,4.50
2010,10,21,05,28,4.10
2010,10,21,05,29,3.70
2010,10,21,05,30,3.40
2010,10,21,05,31,3.40
2010,10,21,05,32,3.90
2010,10,21,05,33,3.40
2010,10,21,05,34,4.20
2010,10,21,05,35,3.80
2010,10,21,05,36,2.70
2010,10,21,05,37,3.20
2010,10,21,05,38,2.90
2010,10,21,05,39,3.60
2010,10,21,05,40,3.00
2010,10,21,05,41,3.90
2010,10,21,05,42,4.20
2010,10,21,05,43,4.10
2010,10,21,05,44,3.70
2010,10,21,05,45,3.90
2010,10,21,05,46,3.80
2010,10,21,05,47,3.50
2010,10,21,05,48,3.90
2010,10,21,05,49,3.40
2010,10,21,05,50,3.00
2010,10,21,05,51,4.00
2010,10,21,05,52,4.10
2010,10,21,05,53,4.40
2010,10,21,05,54,4.30
2010,10,21,05,55,4.30
2010,10,21,05,56,4.40
2010,10,21,05,57,4.10
2010,10,21,05,58,4.40
2010,10,21,05,59,4.70
2010,10,21,06,00,3.70
2010,10,21,06,01,3.90
2010,10,21,06,02,3.80
2010,10,21,06,03,4.60
2010,10,21,06,04,4.20
2010,10,21,06,05,4.10
2010,10,21,06,06,4.60
2010,10,21,06,07,4.00
2010,10,21,06,08,4.20
2010,10,21,06,09,4.40
2010,10,21,06,10,4.80
2010,10,21,06,11,2.80
2010,10,21,06,12,3.10
2010,10,21,06,13,3.20
2010,10,21,06,14,3.10
2010,10,21,06,15,5.10
2010,10,21,06,16,5.10
2010,10,21,06,17,3.20
2010,10,21,06,18,2.70
2010,10,21,06,19,2.50
2010,10,21,06,20,2.30
2010,10,21,06,21,1.40
2010,10,21,06,22,1.90
2010,10,21,06,23,0.80
2010,10,21,06,24,1.60
2010,10,21,06,25,1.20
2010,10,21,06,26,0.20
2010,10,21,06,27,0.10
2010,10,21,06,28,0.00
2010,10,21,06,29,0.00
2010,10,21,06,30,0.00
2010,10,21,06,31,0.00
2010,10,21,06,32,0.10
2010,10,21,06,33,0.00
2010,10,21,06,34,0.40
2010,10,21,06,35,1.00
2010,10,21,06,36,0.00
2010,10,21,06,37,0.00
2010,10,21,06,38,0.20
2010,10,21,06,39,0.00
2010,10,21,06,40,0.00
2010,10,21,06,41,0.00
2010,10,21,06,42,0.00
2010,10,21,06,43,1.40
2010,10,21,06,44,0.60
2010,10,21,06,45,0.10
2010,10,21,06,46,2.60
2010,10,21,06,47,2.60
2010,10,21,06,48,1.70
2010,10,21,06,49,1.90
2010,10,21,06,50,2.10
2010,10,21,06,51,0.20
2010,10,21,06,52,0.10
2010,10,21,06,53,0.20
2010,10,21,06,54,0.20
2010,10,21,06,55,0.60
2010,10,21,06,56,0.90
2010,10,21,06,57,2.70
2010,10,21,06,58,3.30
2010,10,21,06,59,3.50
2010,10,21,07,00,3.50
2010,10,21,07,01,3.60
2010,10,21,07,02,3.60
2010,10,21,07,03,3.90
2010,10,21,07,04,4.40
2010,10,21,07,05,4.50
2010,10,21,07,06,4.20
2010,10,21,07,07,5.30
2010,10,21,07,08,4.30
2010,10,21,07,09,4.80
2010,10,21,07,10,5.20
2010,10,21,07,11,5.80
2010,10,21,07,12,6.30
2010,10,21,07,13,6.00
2010,10,21,07,14,5.00
2010,10,21,07,15,5.30
2010,10,21,07,16,4.50
2010,10,21,07,17,5.10
2010,10,21,07,18,5.30
2010,10,21,07,19,5.70
2010,10,21,07,20,6.20
2010,10,21,07,21,5.50
2010,10,21,07,22,6.30
2010,10,21,07,23,7.30
2010,10,21,07,24,6.50
2010,10,21,07,25,6.40
2010,10,21,07,26,5.90
2010,10,21,07,27,5.60
2010,10,21,07,28,6.30
2010,10,21,07,29,5.50
2010,10,21,07,30,5.90
2010,10,21,07,31,5.10
2010,10,21,07,32,4.50
2010,10,21,07,33,4.20
2010,10,21,07,34,4.50
2010,10,21,07,35,4.50
2010,10,21,07,36,5.30
2010,10,21,07,37,5.00
2010,10,21,07,38,4.80
2010,10,21,07,39,4.90
2010,10,21,07,40,4.70
2010,10,21,07,41,4.80
2010,10,21,07,42,4.10
2010,10,21,07,43,4.40
2010,10,21,07,44,3.30
2010,10,21,07,45,4.10
2010,10,21,07,46,3.40
2010,10,21,07,47,4.10
2010,10,21,07,48,3.40
2010,10,21,07,49,5.30
2010,10,21,07,50,3.80
2010,10,21,07,51,4.60
2010,10,21,07,52,4.60
2010,10,21,07,53,4.10
2010,10,21,07,54,4.40
2010,10,21,07,55,4.70
2010,10,21,07,56,4.50
2010,10,21,07,57,4.30
2010,10,21,07,58,4.60
2010,10,21,07,59,4.30
2010,10,21,08,00,3.60
2010,10,21,08,01,2.60
2010,10,21,08,02,3.00
2010,10,21,08,03,4.10
2010,10,21,08,04,3.80
2010,10,21,08,05,4.20
2010,10,21,08,06,3.10
2010,10,21,08,07,3.40
2010,10,21,08,08,3.40
2010,10,21,08,09,3.00
2010,10,21,08,10,2.60
2010,10,21,08,11,2.90
2010,10,21,08,12,3.10
2010,10,21,08,13,3.50
2010,10,21,08,14,2.80
2010,10,21,08,15,2.70
2010,10,21,08,16,3.70
2010,10,21,08,17,2.80
2010,10,21,08,18,2.20
2010,10,21,08,19,2.20
2010,10,21,08,20,2.80
2010,10,21,08,21,3.30
2010,10,21,08,22,2.30
2010,10,21,08,23,2.90
2010,10,21,08,24,2.70
2010,10,21,08,25,2.60
2010,10,21,08,26,2.90
2010,10,21,08,27,3.20
2010,10,21,08,28,2.60
2010,10,21,08,29,1.70
2010,10,21,08,30,1.40
2010,10,21,08,31,2.10
2010,10,21,08,32,3.00
2010,10,21,08,33,4.50
2010,10,21,08,34,3.40
2010,10,21,08,35,4.40
2010,10,21,08,36,4.40
2010,10,21,08,37,3.80
2010,10,21,08,38,4.70
2010,10,21,08,39,4.90
2010,10,21,08,40,5.10
2010,10,21,08,41,4.20
2010,10,21,08,42,4.70
2010,10,21,08,43,4.60
2010,10,21,08,44,4.40
2010,10,21,08,45,3.50
2010,10,21,08,46,3.30
2010,10,21,08,47,3.60
2010,10,21,08,48,3.70
2010,10,21,08,49,4.80
2010,10,21,08,50,3.00
2010,10,21,08,51,3.50
2010,10,21,08,52,2.50
2010,10,21,08,53,2.70
2010,10,21,08,54,1.00
2010,10,21,08,55,2.40
2010,10,21,08,56,4.50
2010,10,21,08,57,2.80
2010,10,21,08,58,3.30
2010,10,21,08,59,2.80
2010,10,21,09,00,2.60
2010,10,21,09,01,3.90
2010,10,21,09,02,3.90
2010,10,21,09,03,4.30
2010,10,21,09,04,3.00
2010,10,21,09,05,2.60
2010,10,21,09,06,1.20
2010,10,21,09,07,2.70
2010,10,21,09,08,2.60
2010,10,21,09,09,3.30
2010,10,21,09,10,3.00
2010,10,21,09,11,3.10
2010,10,21,09,12,1.70
2010,10,21,09,13,1.70
2010,10,21,09,14,2.60
2010,10,21,09,15,2.20
2010,10,21,09,16,3.10
2010,10,21,09,17,5.10
2010,10,21,09,18,4.20
2010,10,21,09,19,5.00
2010,10,21,09,20,4.30
2010,10,21,09,21,3.30
2010,10,21,09,22,3.30
2010,10,21,09,23,4.20
2010,10,21,09,24,4.60
2010,10,21,09,25,2.60
2010,10,21,09,26,0.90
2010,10,21,09,27,0.80
2010,10,21,09,28,2.50
2010,10,21,09,29,2.40
2010,10,21,09,30,4.90
2010,10,21,09,31,2.20
2010,10,21,09,32,1.10
2010,10,21,09,33,1.60
2010,10,21,09,34,1.30
2010,10,21,09,35,1.60
2010,10,21,09,36,2.10
2010,10,21,09,37,2.90
2010,10,21,09,38,1.10
2010,10,21,09,39,2.10
2010,10,21,09,40,2.10
2010,10,21,09,41,0.40
2010,10,21,09,42,0.60
2010,10,21,09,43,0.00
2010,10,21,09,44,0.00
2010,10,21,09,45,0.00
2010,10,21,09,46,0.00
2010,10,21,09,47,0.00
2010,10,21,09,48,0.00
2010,10,21,09,49,0.00
2010,10,21,09,50,0.00
2010,10,21,09,51,0.00
2010,10,21,09,52,0.00
2010,10,21,09,53,0.00
2010,10,21,09,54,0.00
2010,10,21,09,55,0.30
2010,10,21,09,56,0.10
2010,10,21,09,57,1.10
2010,10,21,09,58,3.40
2010,10,21,09,59,4.00
2010,10,21,10,00,4.30
2010,10,21,10,01,5.70
2010,10,21,10,02,2.90
2010,10,21,10,03,3.90
2010,10,21,10,04,1.10
2010,10,21,10,05,1.10
2010,10,21,10,06,1.90
2010,10,21,10,07,3.70
2010,10,21,10,08,5.10
2010,10,21,10,09,5.20
2010,10,21,10,10,1.30
2010,10,21,10,11,5.50
2010,10,21,10,12,2.60
2010,10,21,10,13,3.30
2010,10,21,10,14,0.90
2010,10,21,10,15,6.50
2010,10,21,10,16,3.40
2010,10,21,10,17,3.90
2010,10,21,10,18,6.60
2010,10,21,10,19,6.60
2010,10,21,10,20,5.70
2010,10,21,10,21,4.10
2010,10,21,10,22,6.70
2010,10,21,10,23,6.00
2010,10,21,10,24,5.50
2010,10,21,10,25,5.50
2010,10,21,10,26,7.20
2010,10,21,10,27,3.40
2010,10,21,10,28,6.10
2010,10,21,10,29,7.20
2010,10,21,10,30,4.70
2010,10,21,10,31,4.50
2010,10,21,10,32,4.20
2010,10,21,10,33,1.30
2010,10,21,10,34,2.10
2010,10,21,10,35,2.90
2010,10,21,10,36,4.70
2010,10,21,10,37,2.80
2010,10,21,10,38,4.40
2010,10,21,10,39,5.10
2010,10,21,10,40,4.40
2010,10,21,10,41,2.80
2010,10,21,10,42,1.60
2010,10,21,10,43,6.00
2010,10,21,10,44,0.30
2010,10,21,10,45,1.90
2010,10,21,10,46,0.30
2010,10,21,10,47,0.50
2010,10,21,10,48,1.30
2010,10,21,10,49,2.60
2010,10,21,10,50,1.30
2010,10,21,10,51,1.50
2010,10,21,10,52,4.70
2010,10,21,10,53,4.20
2010,10,21,10,54,3.80
2010,10,21,10,55,2.20
2010,10,21,10,56,4.20
2010,10,21,10,57,6.90
2010,10,21,10,58,6.60
2010,10,21,10,59,5.90
2010,10,21,11,00,5.50
2010,10,21,11,01,5.50
2010,10,21,11,02,6.80
2010,10,21,11,03,4.30
2010,10,21,11,04,4.00
2010,10,21,11,05,3.70
2010,10,21,11,06,4.30
2010,10,21,11,07,3.90
2010,10,21,11,08,3.80
2010,10,21,11,09,5.20
2010,10,21,11,10,5.70
2010,10,21,11,11,4.70
2010,10,21,11,12,4.20
2010,10,21,11,13,4.70
2010,10,21,11,14,4.30
2010,10,21,11,15,3.50
2010,10,21,11,16,3.70
2010,10,21,11,17,4.80
2010,10,21,11,18,4.10
2010,10,21,11,19,4.20
2010,10,21,11,20,4.90
2010,10,21,11,21,5.60
2010,10,21,11,22,3.60
2010,10,21,11,23,3.90
2010,10,21,11,24,5.50
2010,10,21,11,25,4.80
2010,10,21,11,26,5.00
2010,10,21,11,27,4.30
2010,10,21,11,28,1.60
2010,10,21,11,29,2.90
2010,10,21,11,30,3.80
2010,10,21,11,31,3.10
2010,10,21,11,32,2.80
2010,10,21,11,33,2.60
2010,10,21,11,34,2.10
2010,10,21,11,35,2.70
2010,10,21,11,36,1.30
2010,10,21,11,37,3.50
2010,10,21,11,38,2.50
2010,10,21,11,39,2.10
2010,10,21,11,40,1.90
2010,10,21,11,41,2.00
2010,10,21,11,42,2.00
2010,10,21,11,43,1.20
2010,10,21,11,44,1.00
2010,10,21,11,45,3.50
2010,10,21,11,46,0.80
2010,10,21,11,47,2.80
2010,10,21,11,48,2.70
2010,10,21,11,49,4.40
2010,10,21,11,50,1.90
2010,10,21,11,51,2.70
2010,10,21,11,52,3.20
2010,10,21,11,53,3.90
2010,10,21,11,54,2.20
2010,10,21,11,55,3.90
2010,10,21,11,56,4.70
2010,10,21,11,57,5.90
2010,10,21,11,58,5.20
2010,10,21,11,59,4.60
2010,10,21,12,00,4.80
2010,10,21,12,01,4.10
2010,10,21,12,02,4.00
2010,10,21,12,03,3.10
2010,10,21,12,04,3.60
2010,10,21,12,05,4.70
2010,10,21,12,06,4.00
2010,10,21,12,07,2.40
2010,10,21,12,08,5.50
2010,10,21,12,09,4.10
2010,10,21,12,10,4.00
2010,10,21,12,11,3.80
2010,10,21,12,12,2.60
2010,10,21,12,13,4.00
2010,10,21,12,14,3.70
2010,10,21,12,15,3.50
2010,10,21,12,16,4.40
2010,10,21,12,17,4.50
2010,10,21,12,18,3.60
2010,10,21,12,19,4.10
2010,10,21,12,20,2.90
2010,10,21,12,21,1.30
2010,10,21,12,22,3.30
2010,10,21,12,23,1.40
2010,10,21,12,24,1.10
2010,10,21,12,25,2.70
2010,10,21,12,26,3.10
2010,10,21,12,27,0.40
2010,10,21,12,28,3.30
2010,10,21,12,29,2.70
2010,10,21,12,30,1.70
2010,10,21,12,31,2.00
2010,10,21,12,32,2.80
2010,10,21,12,33,6.00
2010,10,21,12,34,5.50
2010,10,21,12,35,3.90
2010,10,21,12,36,3.30
2010,10,21,12,37,5.40
2010,10,21,12,38,2.30
2010,10,21,12,39,2.80
2010,10,21,12,40,5.20
2010,10,21,12,41,3.90
2010,10,21,12,42,3.50
2010,10,21,12,43,6.50
2010,10,21,12,44,5.60
2010,10,21,12,45,4.80
2010,10,21,12,46,4.60
2010,10,21,12,47,6.10
2010,10,21,12,48,4.40
2010,10,21,12,49,4.10
2010,10,21,12,50,4.50
2010,10,21,12,51,5.00
2010,10,21,12,52,6.20
2010,10,21,12,53,5.90
2010,10,21,12,54,5.10
2010,10,21,12,55,4.70
2010,10,21,12,56,5.50
2010,10,21,12,57,4.50
2010,10,21,12,58,4.10
2010,10,21,12,59,4.30
2010,10,21,13,00,5.50
2010,10,21,13,01,4.70
2010,10,21,13,02,2.50
2010,10,21,13,03,6.90
2010,10,21,13,04,5.60
2010,10,21,13,05,4.10
2010,10,21,13,06,4.20
2010,10,21,13,07,3.90
2010,10,21,13,08,3.60
2010,10,21,13,09,2.10
2010,10,21,13,10,6.60
2010,10,21,13,11,6.10
2010,10,21,13,12,5.50
2010,10,21,13,13,5.50
2010,10,21,13,14,7.50
2010,10,21,13,15,4.70
2010,10,21,13,16,5.00
2010,10,21,13,17,2.00
2010,10,21,13,18,0.10
2010,10,21,13,19,1.00
2010,10,21,13,20,1.30
2010,10,21,13,21,1.30
2010,10,21,13,22,2.70
2010,10,21,13,23,3.60
2010,10,21,13,24,5.40
2010,10,21,13,25,5.00
2010,10,21,13,26,5.40
2010,10,21,13,27,4.30
2010,10,21,13,28,1.00
2010,10,21,13,29,0.70
2010,10,21,13,30,1.10
2010,10,21,13,31,4.70
2010,10,21,13,32,3.00
2010,10,21,13,33,2.30
2010,10,21,13,34,1.20
2010,10,21,13,35,2.20
2010,10,21,13,36,2.70
2010,10,21,13,37,4.00
2010,10,21,13,38,3.70
2010,10,21,13,39,3.20
2010,10,21,13,40,3.10
2010,10,21,13,41,4.60
2010,10,21,13,42,0.90
2010,10,21,13,43,3.00
2010,10,21,13,44,5.10
2010,10,21,13,45,5.50
2010,10,21,13,46,7.40
2010,10,21,13,47,6.30
2010,10,21,13,48,3.40
2010,10,21,13,49,2.90
2010,10,21,13,50,2.40
2010,10,21,13,51,3.80
2010,10,21,13,52,2.10
2010,10,21,13,53,0.10
2010,10,21,13,54,3.50
2010,10,21,13,55,4.10
2010,10,21,13,56,5.50
2010,10,21,13,57,1.10
2010,10,21,13,58,4.50
2010,10,21,13,59,2.00
2010,10,21,14,00,0.00
2010,10,21,14,01,3.10
2010,10,21,14,02,4.50
2010,10,21,14,03,4.70
2010,10,21,14,04,5.20
2010,10,21,14,05,2.50
2010,10,21,14,06,1.00
2010,10,21,14,07,2.70
2010,10,21,14,08,7.20
2010,10,21,14,09,5.50
2010,10,21,14,10,3.50
2010,10,21,14,11,4.70
2010,10,21,14,12,6.10
2010,10,21,14,13,5.00
2010,10,21,14,14,3.00
2010,10,21,14,15,3.00
2010,10,21,14,16,3.30
2010,10,21,14,17,4.70
2010,10,21,14,18,4.40
2010,10,21,14,19,3.10
2010,10,21,14,20,3.30
2010,10,21,14,21,4.00
2010,10,21,14,22,4.00
2010,10,21,14,23,5.50
2010,10,21,14,24,5.50
2010,10,21,14,25,5.40
2010,10,21,14,26,6.00
2010,10,21,14,27,5.10
2010,10,21,14,28,5.60
2010,10,21,14,29,6.80
2010,10,21,14,30,4.20
2010,10,21,14,31,3.90
2010,10,21,14,32,1.90
2010,10,21,14,33,3.60
2010,10,21,14,34,6.90
2010,10,21,14,35,6.20
2010,10,21,14,36,5.40
2010,10,21,14,37,6.60
2010,10,21,14,38,4.40
2010,10,21,14,39,7.10
2010,10,21,14,40,6.30
2010,10,21,14,41,5.20
2010,10,21,14,42,6.00
2010,10,21,14,43,2.10
2010,10,21,14,44,5.80
2010,10,21,14,45,7.60
2010,10,21,14,46,5.80
2010,10,21,14,47,3.90
2010,10,21,14,48,2.90
2010,10,21,14,49,4.80
2010,10,21,14,50,5.50
2010,10,21,14,51,4.30
2010,10,21,14,52,4.30
2010,10,21,14,53,3.50
2010,10,21,14,54,4.90
2010,10,21,14,55,5.10
2010,10,21,14,56,1.90
2010,10,21,14,57,5.10
2010,10,21,14,58,5.10
2010,10,21,14,59,4.10
2010,10,21,15,00,3.70
2010,10,21,15,01,4.30
2010,10,21,15,02,7.00
2010,10,21,15,03,5.90
2010,10,21,15,04,2.80
2010,10,21,15,05,2.80
2010,10,21,15,06,2.70
2010,10,21,15,07,3.00
2010,10,21,15,08,3.10
2010,10,21,15,09,3.60
2010,10,21,15,10,2.20
2010,10,21,15,11,1.40
2010,10,21,15,12,4.00
2010,10,21,15,13,3.80
2010,10,21,15,14,5.20
2010,10,21,15,15,1.40
2010,10,21,15,16,3.80
2010,10,21,15,17,3.90
2010,10,21,15,18,3.00
2010,10,21,15,19,1.30
2010,10,21,15,20,1.90
2010,10,21,15,21,4.80
2010,10,21,15,22,4.00
2010,10,21,15,23,5.50
2010,10,21,15,24,6.60
2010,10,21,15,25,4.60
2010,10,21,15,26,4.80
2010,10,21,15,27,5.70
2010,10,21,15,28,3.90
2010,10,21,15,29,2.70
2010,10,21,15,30,4.20
2010,10,21,15,31,2.80
2010,10,21,15,32,2.60
2010,10,21,15,33,4.00
2010,10,21,15,34,3.30
2010,10,21,15,35,6.10
2010,10,21,15,36,6.40
2010,10,21,15,37,4.50
2010,10,21,15,38,2.70
2010,10,21,15,39,5.20
2010,10,21,15,40,3.10
2010,10,21,15,41,5.70
2010,10,21,15,42,4.70
2010,10,21,15,43,2.40
2010,10,21,15,44,1.80
2010,10,21,15,45,3.50
2010,10,21,15,46,4.40
2010,10,21,15,47,4.40
2010,10,21,15,48,5.00
2010,10,21,15,49,4.00
2010,10,21,15,50,2.60
2010,10,21,15,51,4.50
2010,10,21,15,52,1.90
2010,10,21,15,53,2.60
2010,10,21,15,54,6.70
2010,10,21,15,55,4.20
2010,10,21,15,56,3.40
2010,10,21,15,57,5.20
2010,10,21,15,58,5.00
2010,10,21,15,59,3.80
2010,10,21,16,00,2.20
2010,10,21,16,01,3.80
2010,10,21,16,02,4.50
2010,10,21,16,03,3.90
2010,10,21,16,04,4.90
2010,10,21,16,05,5.20
2010,10,21,16,06,3.90
2010,10,21,16,07,4.40
2010,10,21,16,08,4.70
2010,10,21,16,09,3.90
2010,10,21,16,10,2.40
2010,10,21,16,11,3.30
2010,10,21,16,12,2.30
2010,10,21,16,13,3.40
2010,10,21,16,14,2.90
2010,10,21,16,15,3.80
2010,10,21,16,16,5.60
2010,10,21,16,17,4.80
2010,10,21,16,18,5.10
2010,10,21,16,19,5.30
2010,10,21,16,20,6.90
2010,10,21,16,21,3.20
2010,10,21,16,22,2.80
2010,10,21,16,23,3.20
2010,10,21,16,24,3.20
2010,10,21,16,25,1.70
2010,10,21,16,26,4.00
2010,10,21,16,27,0.20
2010,10,21,16,28,1.20
2010,10,21,16,29,2.40
2010,10,21,16,30,2.70
2010,10,21,16,31,2.00
2010,10,21,16,32,3.20
2010,10,21,16,33,0.60
2010,10,21,16,34,3.20
2010,10,21,16,35,3.30
2010,10,21,16,36,2.00
2010,10,21,16,37,6.10
2010,10,21,16,38,6.10
2010,10,21,16,39,7.30
2010,10,21,16,40,6.40
2010,10,21,16,41,3.80
2010,10,21,16,42,2.90
2010,10,21,16,43,3.20
2010,10,21,16,44,1.90
2010,10,21,16,45,3.40
2010,10,21,16,46,2.40
2010,10,21,16,47,0.70
2010,10,21,16,48,2.80
2010,10,21,16,49,3.20
2010,10,21,16,50,2.70
2010,10,21,16,51,3.00
2010,10,21,16,52,2.30
2010,10,21,16,53,2.30
2010,10,21,16,54,4.60
2010,10,21,16,55,3.50
2010,10,21,16,56,6.00
2010,10,21,16,57,4.50
2010,10,21,16,58,2.50
2010,10,21,16,59,1.50
2010,10,21,17,00,1.50
2010,10,21,17,01,0.00
2010,10,21,17,02,0.00
2010,10,21,17,03,0.80
2010,10,21,17,04,0.00
2010,10,21,17,05,0.00
2010,10,21,17,06,1.60
2010,10,21,17,07,0.20
2010,10,21,17,08,0.00
2010,10,21,17,09,0.00
2010,10,21,17,10,0.00
2010,10,21,17,11,0.40
2010,10,21,17,12,0.00
2010,10,21,17,13,0.40
2010,10,21,17,14,0.20
2010,10,21,17,15,0.00
2010,10,21,17,16,0.00
2010,10,21,17,17,0.00
2010,10,21,17,18,0.00
2010,10,21,17,19,0.00
2010,10,21,17,20,0.00
2010,10,21,17,21,0.00
2010,10,21,17,22,0.40
2010,10,21,17,23,2.00
2010,10,21,17,24,1.40
2010,10,21,17,25,0.00
2010,10,21,17,26,0.00
2010,10,21,17,27,0.00
2010,10,21,17,28,0.00
2010,10,21,17,29,0.00
2010,10,21,17,30,0.00
2010,10,21,17,31,0.00
2010,10,21,17,32,0.00
2010,10,21,17,33,0.00
2010,10,21,17,34,0.00
2010,10,21,17,35,0.00
2010,10,21,17,36,0.00
2010,10,21,17,37,0.00
2010,10,21,17,38,0.00
2010,10,21,17,39,0.00
2010,10,21,17,40,0.00
2010,10,21,17,41,0.10
2010,10,21,17,42,0.10
2010,10,21,17,43,0.30
2010,10,21,17,44,0.00
2010,10,21,17,45,0.10
2010,10,21,17,46,0.00
2010,10,21,17,47,2.20
2010,10,21,17,48,3.60
2010,10,21,17,49,4.50
2010,10,21,17,50,4.00
2010,10,21,17,51,3.70
2010,10,21,17,52,1.10
2010,10,21,17,53,1.20
2010,10,21,17,54,2.00
2010,10,21,17,55,4.20
2010,10,21,17,56,4.10
2010,10,21,17,57,3.70
2010,10,21,17,58,4.00
2010,10,21,17,59,3.90
2010,10,21,18,00,2.10
2010,10,21,18,01,2.30
2010,10,21,18,02,3.80
2010,10,21,18,03,0.80
2010,10,21,18,04,1.30
2010,10,21,18,05,2.10
2010,10,21,18,06,1.70